View from above orbital plane
|
View from above satellite
|
Ground track
|
The orbit data is extracted from the following two-line orbital elements,
1 24773U 97017B 21058.86837413 .00000051 00000-0 38236-4 0 9995
2 24773 82.9178 91.6824 0025365 140.3935 32.6874 13.73660756196185
Epoch (UTC): | 27 February 2021 20:50:27 |
Eccentricity: | 0.0025365 |
inclination: | 82.9178° |
perigee height: | 968 km |
apogee height: | 1005 km |
right ascension of ascending node: | 91.6824° |
argument of perigee: | 140.3935° |
revolutions per day: | 13.73660756 |
mean anomaly at epoch: | 32.6874° |
orbit number at epoch: | 19618 |
The dashed part of the orbit path shows where the satellite is in the earth's shadow,
|
|